Location: Eaton Estates
(41.3089°N, 82.0057°W)
Time: 16:08:24
(UTC+00:00)

CZ-2C R/B - Pass Details

Date: 17 June 2021
Orbit: 500 x 566 km, 97.7° (Epoch: 02 August)

Event Time Altitude Azimuth Distance (km) Brightness Sun altitude
Rises 08:59:33 0° 18° (NNE) 2,712 7.5 -9.0°
Reaches altitude 10° 09:01:47 10° 25° (NNE) 1,804 6.7 -8.7°
Maximum altitude 09:05:31 45° 99° (E) 731 3.8 -8.2°
Drops below altitude 10° 09:09:09 10° 173° (S) 1,751 5.1 -7.6°
Sets 09:11:17 0° 180° (S) 2,623 5.9 -7.3°
